Location: Trebic
(49.2170°N, 15.8830°E)
Time: 13:52:09
(UTC+02:00)

ISS - Visible Passes

Search period start: 03 October 2022 00:00
Search period end: 13 October 2022 00:00
Orbit: 415 x 420 km, 51.6° (Epoch: 03 October)

Date Brightness Start Highest point End Pass type
(mag) Time Alt. Az. Time Alt. Az. Time Alt. Az.
03 Oct -3.1 18:56:26 10° WNW 18:59:45 54° SSW 19:03:02 10° SE visible
03 Oct -0.9 20:34:40 10° WSW 20:35:55 12° SW 20:37:09 10° SSW visible
04 Oct -1.2 19:45:41 10° W 19:48:02 18° SW 19:50:23 10° S visible
05 Oct -1.7 18:57:11 10° W 19:00:04 26° SW 19:02:56 10° SSE visible
07 Oct -0.7 18:58:42 10° WSW 19:00:06 12° SW 19:01:30 10° SSW visible
